Regional Weather Roundup
Issued by NWS Midland/Odessa, TX

Home | Current Version | Previous Version | Text Only | Print | Product List | Glossary On
Versions: 1 2 3 4 5 6 7 8 9 10 11 12 13 14 15 16 17 18 19 20 21 22 23 24 25 26 27 28 29 30 31 32 33 34 35 36 37 38 39 40 41 42 43 44 45 46 47 48 49 50
000
ASUS44 KMAF 311010
RWRMAF
MIDLAND AREA WEATHER ROUNDUP
NATIONAL WEATHER SERVICE MIDLAND TX
500 AM CDT THU JUL 31 2014

...IN SOUTHWEST TEXAS AND SOUTHEAST NEW MEXICO...

CITY           SKY/WX    TMP DP  RH WIND       PRES   REMARKS
ALPINE         MOCLDY    71  59  67 CALM      30.21R
ANDREWS        CLOUDY    69  62  77 NE15G21   30.15R
ARTESIA        CLOUDY    66  63  88 N14       30.22S
BIG SPRING     CLOUDY    74  64  71 N17       30.13R
CARLSBAD       RAIN      68  65  90 NW7         N/A  FOG
DRYDEN           N/A     84  61  45 NE8       29.95S
FORT STOCKTON  MOCLDY    75  64  68 N9        30.09R
GUAD PASS      CLOUDY    63  59  87 NE25      30.26S
HOBBS          CLOUDY    66  59  77 NE18G24   30.19R
MARFA          MOCLDY    68  57  68 NW7       30.20R
MIDLAND AIRPK  CLOUDY    72  65  78 NE9       30.13R
MIDLAND INTL   CLOUDY    71  64  78 NE18      30.11R
ODESSA         CLOUDY    70  63  78 NE16      30.12R
PECOS          MOCLDY    72  63  73 N13       30.10R
PRESIDIO       CLOUDY    82  59  44 CALM      30.03S
SEMINOLE       CLOUDY    69  60  72 NE12G20   30.18R
SNYDER         CLOUDY    69  62  77 N16       30.10S
WINK           CLOUDY    73  64  73 NE14      30.09R
$$
...OTHER STATIONS IN TEXAS...

CITY           SKY/WX    TMP DP  RH WIND       PRES   REMARKS
ABILENE        CLOUDY    70  64  81 N16       30.04S
AMARILLO       MOCLDY    60  58  92 N9        30.22S
AUSTIN         CLOUDY    78  72  81 S7        29.94F
BROWNSVILLE    CLEAR     79  77  94 S9        29.93F
CORPUS CHRISTI PTCLDY    80  76  87 S10       29.93S
DALLAS FTW     MOCLDY    75  70  84 SE8       29.93F
DEL RIO        CLEAR     81  72  74 SE14      29.90F
EL PASO        CLOUDY    76  60  57 E16       30.17R
HOUSTON INT    MOCLDY    80  74  81 S3        29.95S
LUBBOCK        CLOUDY    66  59  78 N15       30.16F
SAN ANGELO     CLOUDY    76  69  79 N17       30.02R
SAN ANTONIO    MOCLDY    80  73  79 S10       29.96S
WACO           MOCLDY    79  69  71 S14G22    29.94R
WICHITA FALLS  NOT AVBL
$$
...OTHER LOCATIONS IN NEW MEXICO...

CITY           SKY/WX    TMP DP  RH WIND       PRES   REMARKS
ALAMAGORDO     MOCLDY    68  64  88 N8        30.20F
ALBUQUERQUE    CLOUDY    65  58  78 E14       30.28R
CANNON AFB     CLOUDY    63  62  99 NE12      30.26R
CLOVIS         NOT AVBL
HOLLOMAN AFB   MOCLDY    68  68 100 N5        30.18F
ROSWELL        CLOUDY    67  61  81 N5        30.24S
RUIDOSO        NOT AVBL
SANTA FE       LGT RAIN  58  55  90 SE21G26   30.34S
TRUTH OR CONSE MOCLDY    69  63  81 N6        30.22R
TUCUMCARI      PTCLDY    62  56  80 NE5       30.26R
$$


USA.gov is the U.S. government's official web portal to all federal, state and local government web resources and services.